User: anonymous   Login
Location: Unspecified
(0.0000°N, 0.0000°E)
Time: 03:53:23
(UTC+00:00)
Language:

DOVE 4 - Orbit

View from above orbital plane
View from above orbital plane
View from above satellite
View from above satellite

Ground track
Ground track

The orbit data is extracted from the following two-line orbital elements,

1 39430U 13066Q   19112.84711538  .00000189  00000-0  42773-4 0  9991
2 39430  97.7405  73.1657 0152922  73.5074 288.2872 14.59224368288312
Epoch (UTC): 22 April 2019 20:19:50
Eccentricity: 0.0152922
inclination: 97.7405°
perigee height: 587 km
apogee height: 804 km
right ascension of ascending node: 73.1657°
argument of perigee: 73.5074°
revolutions per day: 14.59224368
mean anomaly at epoch: 288.2872°
orbit number at epoch: 28831

The dashed part of the orbit path shows where the satellite is in the earth's shadow,  

DLR